Latest Weather Observations for Loxton

IDS60801

Issued at 6:35 pm CDT Tuesday 27 January 2015 (issued every 30 minutes, with the page automatically refreshed every 10 minutes)

About weather observations | Map of weather stations | Latest weather observations for SA | Other Formats
Station Details ID: 024024 Name: LOXTON RESEARCH CENTRE Lat: -34.44 Lon: 140.60 Height: 30.1 m
Data from the previous 72 hours. | See also: Recent months at Loxton
Date/Time
CDT
Temp
°C
App
Temp
°C
Dew
Point
Rel
Hum
%
Delta-T
°C
Wind Press
QNH
hPa
Press
MSL
hPa
Rain
since 9 am
mm
Dir
 
Spd
km/h
Gust
km/h
Spd
kts
Gust
kts
27/06:30pm 25.7 19.5 0.0 18 11.9 S 22 32 12 17 1012.5 1012.4 0.0
27/06:00pm 26.0 19.5 0.3 18 12.0 S 24 37 13 20 1012.4 1012.3 0.0
27/05:30pm 25.9 18.9 -0.8 17 12.2 S 26 35 14 19 1012.5 1012.4 0.0
27/05:00pm 26.4 20.2 0.0 17 12.3 S 22 35 12 19 1012.8 1012.6 0.0
27/04:30pm 25.6 19.7 -0.6 18 12.0 S 20 37 11 20 1012.9 1012.7 0.0
27/04:00pm 26.1 20.0 0.1 18 12.1 S 22 35 12 19 1013.1 1012.9 0.0
27/03:30pm 25.0 19.4 0.9 20 11.3 S 20 39 11 21 1013.4 1013.2 0.0
27/03:00pm 26.2 20.2 1.1 19 11.9 S 22 35 12 19 1013.9 1013.7 0.0
27/02:30pm 25.1 19.5 1.4 21 11.2 S 20 33 11 18 1014.3 1014.1 0.0
27/02:00pm 24.6 18.6 0.8 21 11.1 S 22 33 12 18 1014.5 1014.3 0.0
27/01:30pm 23.0 17.0 1.2 23 10.1 SSW 22 35 12 19 1014.9 1014.7 0.0
27/01:00pm 22.0 15.8 2.1 27 9.3 S 24 35 13 19 1015.4 1015.2 0.0
27/12:30pm 22.1 16.4 2.7 28 9.2 SSW 22 37 12 20 1015.9 1015.7 0.0
27/12:00pm 21.4 16.1 3.1 30 8.7 SSW 20 35 11 19 1016.4 1016.2 0.0
27/11:30am 20.2 14.9 3.2 32 8.0 S 20 28 11 15 1016.8 1016.6 0.0
27/11:00am 19.7 14.6 4.0 35 7.5 S 20 30 11 16 1017.1 1016.9 0.0
27/10:30am 19.3 14.2 3.9 36 7.3 S 20 33 11 18 1017.4 1017.2 0.0
27/10:00am 18.4 13.3 4.3 39 6.7 SSE 20 28 11 15 1017.6 1017.4 0.0
27/09:30am 17.4 12.5 5.1 44 5.9 SE 20 28 11 15 1017.6 1017.4 0.0
27/09:00am 16.1 11.5 5.7 50 5.0 SSE 19 28 10 15 1017.8 1017.6 0.0
27/08:30am 15.2 10.6 5.8 53 4.5 SSE 19 26 10 14 1017.9 1017.7 0.0
27/08:00am 14.0 9.3 6.0 58 3.8 SSE 20 28 11 15 1017.6 1017.4 0.0
27/07:30am 12.6 9.2 6.0 64 3.1 S 13 20 7 11 1017.3 1017.1 0.0
27/07:00am 11.5 8.5 5.9 68 2.6 S 11 17 6 9 1017.0 1016.8 0.0
27/06:30am 11.1 7.7 5.9 70 2.4 S 13 17 7 9 1016.7 1016.5 0.0
27/06:00am 11.3 7.9 5.9 69 2.5 S 13 17 7 9 1016.3 1016.1 0.0
27/05:30am 11.5 8.1 5.9 68 2.6 S 13 17 7 9 1016.0 1015.8 0.0
27/05:00am 11.8 8.4 5.8 66 2.8 S 13 17 7 9 1015.8 1015.6 0.0
27/04:30am 11.8 8.4 5.8 66 2.8 S 13 15 7 8 1015.6 1015.4 0.0
27/04:00am 12.3 8.9 5.7 64 3.1 S 13 17 7 9 1015.6 1015.4 0.0
27/03:30am 12.6 9.1 5.5 62 3.3 S 13 20 7 11 1015.5 1015.3 0.0
27/03:00am 12.9 9.4 5.4 60 3.5 S 13 17 7 9 1015.7 1015.5 0.0
27/02:30am 13.2 9.7 5.5 59 3.6 SSW 13 19 7 10 1015.9 1015.7 0.0
27/02:00am 13.7 9.9 5.6 58 3.8 SSW 15 20 8 11 1016.0 1015.8 0.0
27/01:30am 14.3 10.4 5.4 55 4.2 SSW 15 20 8 11 1016.0 1015.8 0.0
27/01:00am 14.8 10.6 5.5 53 4.4 SSW 17 24 9 13 1016.2 1016.0 0.0
27/12:30am 15.2 10.6 5.5 52 4.6 SSW 19 26 10 14 1016.3 1016.1 0.0
27/12:00am 15.8 11.5 5.3 49 5.0 SSW 17 26 9 14 1016.5 1016.3 0.0
 
Date/Time
CDT
Temp
°C
App
Temp
°C
Dew
Point
Rel
Hum
%
Delta-T
°C
Wind Press
QNH
hPa
Press
MSL
hPa
Rain
since 9 am
mm
Dir
 
Spd
km/h
Gust
km/h
Spd
kts
Gust
kts
26/11:30pm 16.3 11.4 5.2 47 5.3 SSW 20 33 11 18 1016.2 1016.0 0.0
26/11:00pm 17.0 12.0 4.8 44 5.8 SSW 20 30 11 16 1016.1 1015.9 0.0
26/10:30pm 17.7 12.9 4.4 41 6.3 SSW 19 30 10 16 1016.1 1015.9 0.0
26/10:00pm 18.4 13.3 4.0 38 6.8 SSW 20 30 11 16 1015.9 1015.7 0.0
26/09:30pm 19.1 13.6 3.9 36 7.2 SSW 22 35 12 19 1015.6 1015.4 0.0
26/09:00pm 20.3 15.4 2.1 30 8.4 SSW 17 32 9 17 1015.3 1015.1 0.0
26/08:30pm 21.0 16.6 0.6 25 9.2 SSW 13 20 7 11 1015.0 1014.8 0.0
26/08:00pm 22.0 17.2 0.0 23 9.9 SSW 15 24 8 13 1014.7 1014.5 0.0
26/07:30pm 22.8 17.5 -0.3 21 10.4 S 17 24 9 13 1014.4 1014.2 0.0
26/07:00pm 23.3 17.8 0.3 22 10.5 S 19 28 10 15 1014.2 1014.0 0.0
26/06:30pm 23.5 17.8 -0.4 20 10.8 SSW 19 30 10 16 1013.8 1013.6 0.0
26/06:00pm 23.5 17.8 -0.4 20 10.8 SW 19 32 10 17 1013.8 1013.6 0.0
26/05:30pm 23.5 17.7 -0.4 20 10.8 SSW 20 28 11 15 1014.1 1013.9 0.0
26/05:00pm 23.5 17.8 0.4 21 10.6 S 20 33 11 18 1014.2 1014.0 0.0
26/04:30pm 23.8 17.6 -0.2 20 10.9 SSW 22 32 12 17 1014.5 1014.3 0.0
26/04:00pm 24.1 18.5 0.9 21 10.8 SSW 20 33 11 18 1014.7 1014.5 0.0
26/03:30pm 23.5 17.7 0.0 21 10.7 SSW 20 37 11 20 1014.8 1014.6 0.0
26/03:00pm 23.3 18.2 0.7 22 10.4 S 17 32 9 17 1015.1 1014.9 0.0
26/02:30pm 22.7 17.6 1.0 24 10.0 SSE 17 32 9 17 1015.4 1015.2 0.0
26/02:00pm 22.0 16.5 0.7 24 9.7 SSW 19 30 10 16 1015.7 1015.5 0.0
26/01:30pm 21.5 16.2 1.9 27 9.1 SSW 19 30 10 16 1016.2 1016.0 0.0
26/01:00pm 21.9 16.7 2.6 28 9.1 SSE 19 32 10 17 1016.4 1016.2 0.0
26/12:30pm 20.6 15.4 2.6 30 8.4 SSW 19 39 10 21 1016.8 1016.6 0.0
26/12:00pm 20.5 15.6 2.1 29 8.5 SSW 17 30 9 16 1017.0 1016.8 0.0
26/11:30am 19.9 15.0 2.1 30 8.2 S 17 26 9 14 1017.2 1017.0 0.0
26/11:00am 18.9 13.8 3.3 35 7.3 S 19 28 10 15 1017.5 1017.3 0.0
26/10:30am 18.8 15.8 4.3 38 6.9 S 9 20 5 11 1017.7 1017.5 0.0
26/10:00am 18.4 14.7 4.6 40 6.6 SSE 13 20 7 11 1017.9 1017.7 0.0
26/09:30am 17.8 13.4 4.8 42 6.2 SSE 17 24 9 13 1018.1 1017.9 0.0
26/09:00am 17.0 14.1 6.7 50 5.1 SE 11 15 6 8 1018.1 1017.9 0.0
26/08:30am 15.7 12.4 6.4 54 4.5 S 13 20 7 11 1018.3 1018.1 0.0
26/08:00am 13.9 11.5 6.9 62 3.4 S 9 11 5 6 1018.1 1017.9 0.0
26/07:30am 12.0 10.5 7.0 71 2.4 SSE 4 9 2 5 1017.6 1017.4 0.0
26/07:00am 10.5 9.9 7.6 82 1.4 CALM 0 0 0 0 1017.5 1017.3 0.0
26/06:30am 9.6 7.5 6.8 83 1.3 SW 7 9 4 5 1017.1 1016.9 0.0
26/06:00am 9.6 7.5 6.6 81 1.4 S 7 9 4 5 1016.6 1016.4 0.0
26/05:30am 10.4 8.3 6.6 77 1.8 SSW 7 9 4 5 1016.6 1016.4 0.0
26/05:00am 10.4 8.3 6.8 78 1.7 S 7 11 4 6 1016.0 1015.8 0.0
26/04:30am 11.2 8.7 6.5 73 2.2 SSW 9 13 5 7 1015.7 1015.5 0.0
26/04:00am 11.0 8.9 6.5 74 2.1 S 7 11 4 6 1015.5 1015.3 0.0
26/03:30am 11.6 8.7 6.5 71 2.4 SSW 11 13 6 7 1015.4 1015.2 0.0
26/03:00am 11.8 8.9 6.3 69 2.6 SW 11 13 6 7 1015.3 1015.1 0.0
26/02:30am 12.3 9.3 6.2 66 2.9 SW 11 17 6 9 1015.4 1015.2 0.0
26/02:00am 12.8 9.4 6.0 63 3.2 SW 13 17 7 9 1015.4 1015.2 0.0
26/01:30am 13.4 10.0 6.0 61 3.5 SW 13 19 7 10 1015.5 1015.3 0.0
26/01:00am 14.1 10.7 5.9 57 3.9 SSW 13 17 7 9 1015.8 1015.6 0.0
26/12:30am 14.4 11.0 6.0 57 4.0 SW 13 17 7 9 1015.8 1015.6 0.0
26/12:00am 15.2 11.8 5.8 53 4.5 SSW 13 17 7 9 1015.8 1015.6 0.0
 
Date/Time
CDT
Temp
°C
App
Temp
°C
Dew
Point
Rel
Hum
%
Delta-T
°C
Wind Press
QNH
hPa
Press
MSL
hPa
Rain
since 9 am
mm
Dir
 
Spd
km/h
Gust
km/h
Spd
kts
Gust
kts
25/11:30pm 15.7 12.4 6.2 53 4.6 SSW 13 20 7 11 1015.8 1015.6 0.0
25/11:00pm 15.6 12.4 6.8 56 4.3 SSW 13 20 7 11 1015.7 1015.5 0.0
25/10:30pm 16.1 12.9 6.7 53 4.6 SSW 13 19 7 10 1015.4 1015.2 0.0
25/10:00pm 17.1 12.2 4.9 44 5.8 SSW 20 28 11 15 1015.1 1014.9 0.0
25/09:30pm 17.5 13.0 4.1 41 6.3 SSW 17 24 9 13 1014.6 1014.4 0.0
25/09:00pm 18.2 13.3 4.0 39 6.7 SSW 19 26 10 14 1014.1 1013.9 0.0
25/08:30pm 18.8 13.9 4.1 37 7.0 SSW 19 30 10 16 1013.6 1013.4 0.0
25/08:00pm 19.6 13.4 4.1 36 7.4 SSW 26 41 14 22 1013.4 1013.2 0.0
25/07:30pm 21.0 15.3 3.1 30 8.5 SSW 22 37 12 20 1013.0 1012.8 0.0
25/07:00pm 21.5 15.5 3.3 30 8.7 SSW 24 39 13 21 1012.8 1012.6 0.0
25/06:30pm 22.2 15.4 3.2 28 9.1 S 28 41 15 22 1012.3 1012.2 0.0
25/06:06pm 22.4 15.5 2.6 27 9.4 SSW 28 46 15 25 1012.1 1012.0 0.0
25/06:00pm 22.5 15.1 3.8 29 9.1 SSW 32 46 17 25 1012.0 1011.9 0.0
25/05:56pm 22.3 15.6 3.4 29 9.1 SSW 28 46 15 25 1012.0 1011.9 0.0
25/05:30pm 23.3 16.8 2.9 26 9.8 SW 26 37 14 20 1011.9 1011.8 0.0
25/05:00pm 23.7 16.4 0.1 21 10.8 SW 28 48 15 26 1011.8 1011.7 0.0
25/04:57pm 23.8 16.4 -0.5 20 11.0 SW 28 48 15 26 1011.7 1011.6 0.0
25/04:30pm 23.9 16.9 2.0 24 10.4 SSW 28 43 15 23 1011.7 1011.6 0.0
25/04:09pm 24.4 17.6 3.3 25 10.3 SW 28 46 15 25 1011.6 1011.5 0.0
25/04:00pm 23.4 17.0 3.1 26 9.8 SSW 26 43 14 23 1011.7 1011.6 0.0
25/03:30pm 24.6 18.1 2.6 24 10.6 SW 26 41 14 22 1011.8 1011.7 0.0
25/03:00pm 23.9 17.0 2.7 25 10.2 SW 28 43 15 23 1011.7 1011.6 0.0
25/02:30pm 23.6 17.0 2.1 24 10.2 SSW 26 44 14 24 1011.8 1011.7 0.0
25/02:00pm 23.8 17.9 1.8 23 10.4 SSW 22 37 12 20 1011.9 1011.8 0.0
25/01:30pm 23.5 17.4 2.6 25 10.0 SW 24 39 13 21 1012.2 1012.1 0.0
25/01:00pm 22.3 15.3 1.7 25 9.6 SW 28 43 15 23 1012.3 1012.2 0.0
25/12:30pm 22.2 16.5 2.9 28 9.2 SW 22 39 12 21 1012.8 1012.6 0.0
25/12:00pm 21.2 15.7 4.0 32 8.3 SW 22 35 12 19 1012.8 1012.6 0.0
25/11:30am 20.1 14.6 4.1 35 7.7 SW 22 33 12 18 1012.8 1012.6 0.0
25/11:00am 19.5 14.2 5.2 39 7.0 SW 22 39 12 21 1012.5 1012.4 0.0
25/10:30am 19.3 14.5 5.7 41 6.7 SW 20 35 11 19 1012.3 1012.2 0.0
25/10:00am 18.8 14.6 7.4 47 5.8 SSW 19 32 10 17 1012.5 1012.4 0.0
25/09:30am 18.6 13.4 7.1 47 5.8 SW 24 39 13 21 1012.5 1012.4 0.0
25/09:00am 17.4 12.8 8.0 54 4.8 SSW 22 37 12 20 1012.4 1012.3 0.0
25/08:30am 17.1 12.9 8.1 55 4.6 SW 20 33 11 18 1012.1 1012.0 0.0
25/08:00am 16.6 12.7 8.8 60 4.0 SSW 19 32 10 17 1011.7 1011.6 0.0
25/07:30am 15.6 12.5 10.3 70 2.8 SW 17 24 9 13 1011.2 1011.1 0.0
25/07:00am 14.7 12.4 10.3 75 2.3 SW 13 17 7 9 1010.7 1010.6 0.0
25/06:30am 14.3 12.0 10.5 78 2.0 WSW 13 17 7 9 1010.3 1010.2 0.0
25/06:00am 14.5 13.1 10.9 79 1.9 SW 9 15 5 8 1010.0 1009.9 0.0
25/05:30am 15.3 12.8 11.2 76 2.2 SW 15 20 8 11 1009.7 1009.6 0.0
25/05:00am 15.7 14.1 11.6 76 2.2 WSW 11 17 6 9 1009.4 1009.3 0.0
25/04:30am 15.8 13.9 11.8 77 2.2 SW 13 17 7 9 1009.2 1009.1 0.0
25/04:00am 16.3 13.0 11.7 74 2.5 SW 20 30 11 16 1009.0 1008.9 0.0
25/03:30am 16.9 13.2 11.4 70 3.0 SW 22 33 12 18 1008.9 1008.8 0.0
25/03:00am 17.2 14.8 12.5 74 2.6 SSW 17 30 9 16 1008.9 1008.8 0.0
25/02:30am 18.0 15.5 11.2 64 3.7 WSW 15 24 8 13 1008.6 1008.5 0.0
25/02:00am 18.5 15.6 11.0 61 4.1 WSW 17 32 9 17 1008.3 1008.2 0.0
25/01:30am 18.8 15.0 11.1 61 4.2 SW 22 33 12 18 1008.5 1008.4 0.0
25/01:00am 19.1 15.9 11.3 60 4.3 SW 19 28 10 15 1008.7 1008.6 0.0
25/12:30am 19.4 17.1 10.5 56 4.8 SW 13 19 7 10 1008.6 1008.5 0.0
25/12:00am 20.2 17.9 10.4 53 5.3 SW 13 20 7 11 1008.5 1008.4 0.0
 
Date/Time
CDT
Temp
°C
App
Temp
°C
Dew
Point
Rel
Hum
%
Delta-T
°C
Wind Press
QNH
hPa
Press
MSL
hPa
Rain
since 9 am
mm
Dir
 
Spd
km/h
Gust
km/h
Spd
kts
Gust
kts
24/11:30pm 20.6 17.9 10.3 51 5.6 SW 15 24 8 13 1008.5 1008.4 0.0
24/11:00pm 20.9 18.1 10.0 49 5.9 SW 15 19 8 10 1008.3 1008.2 0.0
24/10:30pm 21.3 18.0 9.4 46 6.4 SW 17 24 9 13 1007.9 1007.8 0.0
24/10:00pm 22.0 18.1 8.6 42 7.1 SW 19 24 10 13 1007.5 1007.4 0.0
24/09:30pm 22.6 19.0 8.5 40 7.5 SW 17 24 9 13 1006.9 1006.8 0.0
24/09:00pm 23.4 18.2 8.9 39 7.8 SW 26 39 14 21 1006.3 1006.2 0.0
24/08:30pm 24.8 19.5 8.5 35 8.8 SSW 26 37 14 20 1005.6 1005.5 0.0
24/08:00pm 25.7 20.4 8.5 33 9.3 SSW 26 39 14 21 1005.1 1005.0 0.0
24/07:30pm 27.6 22.5 7.5 28 10.8 SW 24 35 13 19 1004.4 1004.3 0.0
24/07:00pm 29.5 24.0 4.2 20 13.0 WSW 22 35 12 19 1004.0 1003.9 0.0

Other Formats:

Comma delimited format used in spreadsheet applications
http://www.bom.gov.au/fwo/IDS60801/IDS60801.94682.axf

JavaScript Object Notation format (JSON) in row-major order
http://www.bom.gov.au/fwo/IDS60801/IDS60801.94682.json